Hourly Data Report for October 05, 2017

All times are specified in Local Standard Time (LST). Add 1 hour to adjust for Daylight Saving Time where and when it is observed.

NORMAN WELLS A
NORTHWEST TERRITORIES

65°16'53.000" N
126°47'55.000" W
72.50 m
2202801
71043
YVQ

Download Data

Hourly Data (October 2017)
Hourly Data Report for October 5, 2017
Temp Definition
°C
Dew Point Temp Definition
°C
Rel Hum Definition
%
Wind Dir Definition
10's deg

Wind Spd Definition
km/h
Visibility Definition
km
Stn Press Definition
kPa
Hmdx Definition


Wind Chill Definition


Weather Definition


TIME
00:00 Legend Double Dagger 7.1 2.5 73 11 24 48.3 99.86     LegendNANA
01:00 Legend Double Dagger 6.4 2.8 78 12 22 48.3 99.77     LegendNANA
02:00 Legend Double Dagger 6.8 2.6 75 12 26 48.3 99.69     Mostly Cloudy
03:00 Legend Double Dagger 6.5 2.9 77 13 30 48.3 99.59     LegendNANA
04:00 Legend Double Dagger 5.9 2.6 79 11 16 48.3 99.46     LegendNANA
05:00 Legend Double Dagger 5.4 2.4 81 10 8 48.3 99.43     Cloudy
06:00 Legend Double Dagger 4.8 2.2 83 9 7 48.3 99.34     LegendNANA
07:00 Legend Double Dagger 3.3 1.6 88 5 4 48.3 99.26     LegendNANA
08:00 Legend Double Dagger 2.0 0.8 91 36 1 48.3 99.23     Mostly Cloudy
09:00 Legend Double Dagger 3.5 1.4 86 8 4 48.3 99.10     LegendNANA
10:00 Legend Double Dagger 3.5 1.9 89 29 13 48.3 99.12     LegendNANA
11:00 Legend Double Dagger 4.7 2.3 84 29 11 48.3 99.11     Mostly Cloudy
12:00 Legend Double Dagger 5.6 2.9 83 23 7 48.3 99.08     LegendNANA
13:00 Legend Double Dagger 5.8 2.5 79 24 12 48.3 99.06     LegendNANA
14:00 Legend Double Dagger 6.1 2.8 79 12 8 48.3 98.98     Mostly Cloudy
15:00 Legend Double Dagger 6.8 3.2 78 11 7 48.3 98.98     LegendNANA
16:00 Legend Double Dagger 7.8 2.9 71 9 12 48.3 98.90     LegendNANA
17:00 Legend Double Dagger 7.9 3.9 76 13 7 48.3 98.83     Mainly Clear
18:00 Legend Double Dagger 6.7 3.0 77 10 7 48.3 98.81     LegendNANA
19:00 Legend Double Dagger 5.7 3.8 87 14 11 48.3 98.74     LegendNANA
20:00 Legend Double Dagger 2.5 1.0 90 8 3 48.3 98.70     Mainly Clear
21:00 Legend Double Dagger 3.5 2.5 94 9 9 48.3 98.64     LegendNANA
22:00 Legend Double Dagger -1.2 -1.6 97 5 8 48.3 98.56   -4 LegendNANA
23:00 Legend Double Dagger -0.5 -1.0 96 6 9 48.3 98.49   -4 Mostly Cloudy

Notes on Data Quality.

Legend

  • E = Estimated
  • M = Missing
  • NA = Not Available
  • ‡ = Partner data that is not subject to review by the National Climate Archives
Date modified: